Flag for Argentina Weather past 2 weeks in Bahía Blanca, Buenos Aires, Argentina

Now
54 °F

Light rain. Overcast.


Feels Like: 47 °F
Forecast: 42 / 58 °F
Wind: 28 mph from Northeast

Location: Mar Del Plata Aerodrome

Current Time: Jul 30, 2015 at 10:12:09 PM

Latest Report: Jul 30, 2015 at 9:00 PM


Visibility: 3 mi

Pressure: 29.89 "Hg

Humidity: 94%

Dew point: 52 °F

Location of Bahía BlancaLocation

Historic Weather in Bahía Blanca — Graph

°F

Bahía Blanca temperature yesterday

Maximum temperature yesterday: 61 °F (at 2:00 PM)
Minimum temperature yesterday: 41 °F (at 11:00 PM)
Average temperature yesterday: 52 °F

Past Weeks' High & Low Weather Summary

 TemperatureHumidityPressure
High66 °F (Jul 26, 3:00 PM)100% (Jul 18, 6:00 AM)30.36 "Hg (Jul 18, 6:00 AM)
Low30 °F (Jul 17, 7:00 AM)31% (Jul 19, 1:00 PM)29.80 "Hg (Jul 28, 3:00 PM)
Average49 °F76%30.12 "Hg
* Reported Jul 15 8:00 PM — Jul 30 8:00 PM, Bahía Blanca, Weather by CustomWeather, © 2015

Note: Actual official high and low records may vary slightly from our data, if they occured in-between our weather recording intervals... More about our weather records

Advertising

Bahía Blanca weather history for previous 24 hours

 ConditionsComfort  
Time TempWeatherWind HumidityBarometerVisibility
8:00 PM
Thu, Jul 30
54 °FLight rain. Fog.17 mph88%29.98 "Hg3 mi
7:00 PM54 °FClear.14 mph88%29.98 "Hg5 mi
6:00 PM54 °FClear.15 mph88%30.01 "Hg10 mi
5:00 PM54 °FSunny.12 mph88%30.04 "Hg10 mi
4:00 PM55 °FSunny.20 mph82%30.04 "Hg10 mi
3:00 PM57 °FSunny.17 mph77%30.07 "Hg10 mi
2:00 PM57 °FSunny.15 mph77%30.09 "Hg10 mi
1:00 PM57 °FSunny.17 mph67%30.12 "Hg10 mi
12:00 PM55 °FSunny.15 mph67%30.15 "Hg10 mi
11:00 AM55 °FSunny.12 mph67%30.18 "Hg10 mi
10:00 AM48 °FSunny.6 mph100%30.18 "Hg10 mi
9:00 AM36 °FFog.No wind100%30.18 "Hg0 mi
8:00 AM36 °FFog.No wind93%30.18 "Hg2 mi
7:00 AM36 °FClear.No wind93%30.18 "Hg5 mi
6:00 AM36 °FClear.No wind93%30.18 "Hg5 mi
5:00 AM36 °FClear.3 mph93%30.18 "Hg5 mi
4:00 AM36 °FClear.3 mph93%30.18 "Hg5 mi
3:00 AM37 °FClear.No wind93%30.18 "Hg5 mi
2:00 AM39 °FClear.No wind93%30.21 "Hg4 mi
1:00 AM39 °FClear.No wind93%30.21 "Hg4 mi
12:00 AM39 °FClear.No wind93%30.18 "Hg4 mi
11:00 PM
Wed, Jul 29
41 °FFog.3 mph93%30.18 "Hg2 mi
10:00 PM45 °FClear.3 mph87%30.15 "Hg4 mi
Weather by CustomWeather, © 2015

See weather overviewHow to use our weather pages